[[{"header":{"parameterUnit":"m.s-1","parameterCategory":1,"la1":30.2991,"la2":30.254,"lo1":-89.0895,"lo2":-89.0444,"dy":0.0017,"dx":0.0017,"nx":28,"ny":28,"refTime":"2024-10-19T21:00:00:Z","depth":0,"parameterNumber":2,"parameterNumberName":"U-component_of_WINDS"},"data":[0,0,0,0,0,0,0,0,0,0,0,0,0,0,0,0,0,0,0,0,0,0,0,0,0,0,0,0,0,0,0,0,0,0,0,0,0,0,0,0,0,0,0,0,0,0,0,0,0,0,0,0,0,0,0,0,0,0,-3.8081,-3.808,0,-3.8011,-3.801,-3.8009,-3.7874,-3.7872,-3.7869,-3.7867,-3.7798,-3.7799,-3.78,0,0,0,0,0,0,0,0,0,0,0,0,0,-3.8104,-3.8104,-3.8081,-3.808,-3.8079,-3.8011,-3.801,-3.8009,-3.7875,-3.7872,-3.7869,-3.7866,-3.7798,-3.7799,-3.78,0,0,0,0,0,0,0,0,0,0,0,0,0,-3.807,-3.8104,-3.8081,-3.8004,-3.7997,-3.8011,-3.801,-3.8008,-3.7876,-3.7872,-3.7868,-3.7864,-3.7798,-3.7799,-3.78,-3.7884,0,0,-3.7803,-3.7803,0,0,0,0,0,0,0,0,-3.8072,-3.8069,-3.8016,-3.801,-3.8001,-3.7947,-3.7992,-3.7967,-3.7877,-3.7922,-3.7867,-3.7862,-3.7851,-3.7848,-3.7843,-3.7881,-3.7878,-3.7803,-3.7803,-3.7804,-3.7804,0,0,0,0,0,0,0,-3.8075,-3.8072,-3.8053,-3.8016,-3.8006,-3.7974,-3.7965,-3.7987,-3.791,-3.7917,-3.7907,-3.7901,-3.7846,-3.7843,-3.7841,-3.7877,-3.7803,-3.7803,-3.7804,-3.7804,-3.7983,-3.7987,0,0,0,0,0,0,-3.8088,-3.8074,-3.8055,-3.8051,-3.8027,-3.7977,-3.7967,-3.7969,-3.7909,-3.7896,-3.7904,-3.7895,-3.7843,-3.784,-3.7838,-3.7934,-3.7804,-3.7805,-3.7805,-3.7979,-3.7984,-3.7989,0,0,0,0,0,0,-3.8089,-3.8087,-3.8058,-3.806,-3.8054,-3.7981,-3.7984,-3.7969,-3.7965,-3.7899,-3.7885,-3.7914,-3.784,-3.7836,-3.7874,-3.793,-3.7805,-3.7806,-3.7974,-3.7981,-3.7987,-3.8128,0,0,0,0,0,0,-3.809,-3.8088,-3.8119,-3.8062,-3.8054,-3.8095,-3.7987,-3.7971,-3.7967,-3.7954,-3.7905,-3.7893,-3.7836,-3.7873,-3.7875,-3.7929,-3.7807,-3.7969,-3.7977,-3.7985,-3.8118,-3.8139,-3.8156,0,0,0,0,0,-3.8091,-3.8162,-3.8121,-3.812,-3.8091,-3.8099,-3.8094,-3.8027,-3.7972,-3.8003,-3.796,-3.7894,-3.7923,-3.7878,-3.7879,-3.7934,-3.7965,-3.7975,-3.7984,-3.811,-3.8135,-3.8156,0,0,0,0,0,0,-3.8229,-3.8153,-3.8107,-3.8161,-3.8137,-3.8076,-3.8113,-3.8055,-3.8047,-3.8036,-3.7953,-3.7943,-3.7993,-3.7967,-3.7918,-3.8014,-3.7934,-3.7944,-3.8029,-3.8052,-3.8071,-3.8077,-3.7807,0,0,0,0,0,-3.8265,-3.8277,-3.821,-3.8265,-3.8255,-3.8186,-3.8187,-3.8137,-3.8109,-3.8099,-3.8059,-3.8036,-3.804,-3.8044,-3.8044,-3.8113,-3.8102,-3.8152,-3.8171,-3.8187,-3.8197,-3.8234,-3.8256,-3.802,-3.802,-3.802,0,0,-3.8341,-3.8301,-3.8314,-3.8291,-3.8267,-3.8282,-3.8179,-3.8199,-3.821,-3.8102,-3.8136,-3.8106,-3.8075,-3.8129,-3.8151,-3.811,-3.8259,-3.8199,-3.8212,-3.8213,-3.8246,-3.8268,-3.8288,-3.8026,-3.8025,-3.8024,0,0,-3.8487,-3.8458,-3.85,-3.8478,-3.8442,-3.8396,-3.8406,-3.8354,-3.833,-3.8361,-3.8282,-3.8294,-3.8302,-3.8284,-3.8276,-3.8416,-3.8356,-3.8419,-3.8518,-3.8555,-3.8573,-3.8589,-3.8642,-3.8661,-3.8429,-3.8429,-3.8429,0,-3.8587,-3.8605,-3.853,-3.8555,-3.8549,-3.8451,-3.8495,-3.8477,-3.8444,-3.8442,-3.8395,-3.8404,-3.8376,-3.8426,-3.8461,-3.8456,-3.8468,-3.8424,-3.8576,-3.8592,-3.8606,-3.8655,-3.8674,-3.8437,-3.8436,-3.8435,-3.8434,0,-3.873,-3.8744,-3.8783,-3.8753,-3.875,-3.8785,-3.8716,-3.8723,-3.8674,-3.8634,-3.8668,-3.8631,-3.8623,-3.863,-3.8582,-3.8674,-3.865,-3.8591,-3.8509,-3.8638,-3.8682,-3.87,-3.8448,-3.8445,-3.8443,-3.8441,0,0,-3.8962,-3.8889,-3.8905,-3.889,-3.8844,-3.8854,-3.8885,-3.8876,-3.8884,-3.8865,-3.889,-3.89,-3.8845,-3.8836,-3.8785,-3.8817,-3.8934,-3.8755,-3.8753,-3.8791,-3.9035,-3.9082,-3.9104,-3.8893,-3.8896,-3.8899,-3.9039,0,-3.9099,-3.9147,-3.908,-3.9144,-3.9157,-3.9065,-3.9092,-3.9068,-3.9031,-3.9038,-3.8998,-3.9007,-3.8933,-3.8927,-3.8955,-3.8914,-3.8982,-3.8903,-3.8918,-3.892,-3.8931,-3.9127,-3.9175,-3.9309,-3.9055,-3.9058,-3.906,0,-3.9266,-3.9254,-3.9319,-3.9269,-3.9272,-3.9298,-3.9285,-3.9292,-3.9263,-3.9234,-3.9225,-3.9164,-3.9193,-3.9113,-3.9152,-3.91,-3.9102,-3.9083,-3.9087,-3.9087,-3.8999,-3.9135,-3.935,-3.9371,-3.9087,-3.9085,-3.9083,0,-3.9431,-3.9431,-3.947,-3.946,-3.9403,-3.9424,-3.9401,-3.9368,-3.9367,-3.9356,-3.9355,-3.9348,-3.9345,-3.9342,-3.9282,-3.9228,-3.933,-3.9244,-3.9309,-3.9311,-3.9336,-3.9336,-3.9557,-3.9335,-3.9334,-3.9334,-3.9333,0,-3.9593,-3.9637,-3.9543,-3.9568,-3.9615,-3.9538,-3.9588,-3.9556,-3.9527,-3.9545,-3.9465,-3.9484,-3.9402,-3.9413,-3.9365,-3.9407,-3.9406,-3.9385,-3.9372,-3.9393,-3.9396,-3.9395,-3.9385,-3.9339,-3.9338,-3.9337,-3.9336,0,-3.9786,-3.9725,-3.9762,-3.9704,-3.9691,-3.9729,-3.9681,-3.9702,-3.966,-3.9684,-3.9685,-3.962,-3.9628,-3.9567,-3.9564,-3.9533,-3.9598,-3.9568,-3.9608,-3.9599,-3.9669,-3.9664,-3.9898,-3.9926,-3.9685,-3.9687,-3.9689,0,-3.9894,-3.9925,-3.9871,-3.9877,-3.9858,-3.9869,-3.9867,-3.9794,-3.9796,-3.9766,-3.9792,-3.9793,-3.9791,-3.9809,-3.9763,-3.9761,-3.9732,-3.9814,-3.9731,-3.9752,-3.9736,-3.9736,-3.9739,-3.9832,-3.9835,-3.9837,-3.9839,0,-4.0093,-4.0061,-4.0061,-4.0053,-4.0053,-4.0042,-4.0026,-4.0036,-3.9956,-3.9964,-3.9971,-3.9969,-3.9966,-3.997,-3.9959,-3.9937,-3.9877,-3.9866,-3.9881,-3.9904,-3.9927,-3.9918,-3.9657,-3.9861,-3.9859,-3.9857,-3.9856,-3.9855,-4.0248,-4.0272,-4.0238,-4.0242,-4.0222,-4.021,-4.0227,-4.0187,-4.0192,-4.0183,-4.014,-4.0156,-4.0127,-4.0106,-4.009,-4.0103,-4.0064,-4.0085,-4.0091,-4.0098,-4.0112,-3.9923,-4.01,-4.01,-4.0099,-4.0098,-4.0098,0,-4.0444,-4.0418,-4.0422,-4.0403,-4.0406,-4.0347,-4.0327,-4.0334,-4.0349,-4.0327,-4.0326,-4.0336,-4.0339,-4.0293,-4.0291,-4.031,-4.0283,-4.0312,-4.0311,-4.0308,-4.0146,-4.0134,-4.0335,-4.0335,-4.0335,-4.0335,-4.0335,-4.0335,-4.0547,-4.0586,-4.0551,-4.058,-4.0553,-4.0567,-4.0561,-4.055,-4.0532,-4.0546,-4.0548,-4.0518,-4.0487,-4.0482,-4.0483,-4.047,-4.0474,-4.0514,-4.0492,-4.0342,-4.0319,-4.0297,-4.0285,-4.0515,-4.0515,-4.0652,-4.0654,-4.0655]},{"header":{"parameterUnit":"m.s-1","parameterCategory":1,"la1":30.2991,"la2":30.254,"lo1":-89.0895,"lo2":-89.0444,"dy":0.0017,"dx":0.0017,"nx":28,"ny":28,"refTime":"2024-10-19T21:00:00:Z","depth":0,"parameterNumber":3,"parameterNumberName":"V-component_of_WINDS"},"data":[0,0,0,0,0,0,0,0,0,0,0,0,0,0,0,0,0,0,0,0,0,0,0,0,0,0,0,0,0,0,0,0,0,0,0,0,0,0,0,0,0,0,0,0,0,0,0,0,0,0,0,0,0,0,0,0,0,0,-1.151,-1.151,0,-1.1451,-1.145,-1.145,-1.1336,-1.1334,-1.1332,-1.1329,-1.1273,-1.1273,-1.1274,0,0,0,0,0,0,0,0,0,0,0,0,0,-1.1529,-1.1529,-1.151,-1.151,-1.1509,-1.1451,-1.145,-1.1449,-1.1336,-1.1334,-1.1331,-1.1328,-1.1273,-1.1273,-1.1274,0,0,0,0,0,0,0,0,0,0,0,0,0,-1.15,-1.1529,-1.151,-1.1445,-1.1439,-1.1451,-1.145,-1.1449,-1.1337,-1.1334,-1.133,-1.1327,-1.1272,-1.1273,-1.1274,-1.1346,0,0,-1.1277,-1.1277,0,0,0,0,0,0,0,0,-1.1502,-1.15,-1.1456,-1.145,-1.1443,-1.1397,-1.1436,-1.1415,-1.1338,-1.1376,-1.1329,-1.1326,-1.1317,-1.1314,-1.1311,-1.1344,-1.1341,-1.1277,-1.1277,-1.1278,-1.1278,0,0,0,0,0,0,0,-1.1504,-1.1502,-1.1487,-1.1455,-1.1447,-1.142,-1.1412,-1.1431,-1.1366,-1.1372,-1.1364,-1.1358,-1.1313,-1.131,-1.1308,-1.134,-1.1277,-1.1277,-1.1278,-1.1278,-1.143,-1.1434,0,0,0,0,0,0,-1.1515,-1.1504,-1.1489,-1.1485,-1.1465,-1.1423,-1.1414,-1.1415,-1.1366,-1.1355,-1.1361,-1.1353,-1.131,-1.1308,-1.1306,-1.1388,-1.1278,-1.1278,-1.1279,-1.1427,-1.1431,-1.1435,0,0,0,0,0,0,-1.1516,-1.1515,-1.1491,-1.1492,-1.1487,-1.1426,-1.1428,-1.1416,-1.1413,-1.1357,-1.1345,-1.137,-1.1307,-1.1305,-1.1337,-1.1385,-1.1279,-1.128,-1.1423,-1.1428,-1.1433,-1.1553,0,0,0,0,0,0,-1.1517,-1.1516,-1.1542,-1.1494,-1.1488,-1.1523,-1.1431,-1.1417,-1.1414,-1.1403,-1.1362,-1.1352,-1.1305,-1.1336,-1.1338,-1.1384,-1.128,-1.1418,-1.1425,-1.1431,-1.1545,-1.1562,-1.1577,0,0,0,0,0,-1.1518,-1.1579,-1.1544,-1.1543,-1.1519,-1.1526,-1.1522,-1.1465,-1.1418,-1.1445,-1.1409,-1.1353,-1.1379,-1.1341,-1.1341,-1.1389,-1.1415,-1.1423,-1.1431,-1.1538,-1.1559,-1.1576,0,0,0,0,0,0,-1.1636,-1.1572,-1.1532,-1.1579,-1.1558,-1.1506,-1.1538,-1.1489,-1.1483,-1.1473,-1.1403,-1.1395,-1.1437,-1.1415,-1.1374,-1.1456,-1.1388,-1.1397,-1.1469,-1.1488,-1.1504,-1.151,-1.1281,0,0,0,0,0,-1.1667,-1.1677,-1.162,-1.1667,-1.1659,-1.1601,-1.1601,-1.1559,-1.1535,-1.1527,-1.1493,-1.1474,-1.1477,-1.1481,-1.1481,-1.154,-1.153,-1.1573,-1.1589,-1.1602,-1.1611,-1.1642,-1.1661,-1.1461,-1.1461,-1.1461,0,0,-1.1733,-1.1699,-1.1709,-1.169,-1.1669,-1.1683,-1.1594,-1.1612,-1.1621,-1.153,-1.1558,-1.1533,-1.1506,-1.1553,-1.1572,-1.1536,-1.1664,-1.1612,-1.1623,-1.1625,-1.1652,-1.1671,-1.1688,-1.1466,-1.1465,-1.1465,0,0,-1.1859,-1.1833,-1.187,-1.185,-1.1819,-1.178,-1.1789,-1.1744,-1.1723,-1.175,-1.1682,-1.1692,-1.1699,-1.1684,-1.1677,-1.1796,-1.1745,-1.1798,-1.1882,-1.1913,-1.1929,-1.1942,-1.1987,-1.2003,-1.1806,-1.1806,-1.1807,0,-1.1945,-1.196,-1.1895,-1.1917,-1.1911,-1.1827,-1.1864,-1.1849,-1.1821,-1.1819,-1.1779,-1.1786,-1.1762,-1.1804,-1.1833,-1.183,-1.1839,-1.1803,-1.1931,-1.1944,-1.1956,-1.1998,-1.2015,-1.1813,-1.1812,-1.1812,-1.1811,0,-1.2068,-1.208,-1.2113,-1.2087,-1.2084,-1.2114,-1.2054,-1.206,-1.2017,-1.1982,-1.2011,-1.1979,-1.1972,-1.1978,-1.1937,-1.2015,-1.1994,-1.1944,-1.1875,-1.1983,-1.2021,-1.2037,-1.1823,-1.182,-1.1818,-1.1817,0,0,-1.227,-1.2205,-1.2219,-1.2206,-1.2165,-1.2173,-1.2199,-1.219,-1.2197,-1.218,-1.2201,-1.2208,-1.2161,-1.2153,-1.211,-1.2136,-1.2235,-1.2083,-1.2081,-1.2114,-1.2321,-1.2361,-1.238,-1.22,-1.2202,-1.2205,-1.2323,0,-1.2388,-1.2428,-1.237,-1.2424,-1.2435,-1.2354,-1.2377,-1.2355,-1.2323,-1.2328,-1.2292,-1.23,-1.2236,-1.2231,-1.2254,-1.2218,-1.2276,-1.2208,-1.2221,-1.2222,-1.2233,-1.2399,-1.2442,-1.2555,-1.2338,-1.234,-1.2342,0,-1.2533,-1.2522,-1.2576,-1.2532,-1.2534,-1.2556,-1.2543,-1.2548,-1.2522,-1.2497,-1.2488,-1.2435,-1.2458,-1.2389,-1.2421,-1.2377,-1.2378,-1.2362,-1.2365,-1.2366,-1.2291,-1.2408,-1.259,-1.2608,-1.2364,-1.2362,-1.2361,0,-1.2677,-1.2675,-1.2708,-1.2699,-1.2647,-1.2664,-1.2644,-1.2614,-1.2612,-1.2601,-1.26,-1.2592,-1.2589,-1.2585,-1.2532,-1.2486,-1.2572,-1.2498,-1.2553,-1.2555,-1.2577,-1.2577,-1.2765,-1.2574,-1.2574,-1.2574,-1.2573,0,-1.2818,-1.2855,-1.2772,-1.2792,-1.2832,-1.2764,-1.2805,-1.2777,-1.2751,-1.2765,-1.2694,-1.271,-1.2637,-1.2645,-1.2604,-1.2638,-1.2636,-1.2618,-1.2607,-1.2626,-1.2629,-1.2628,-1.262,-1.2578,-1.2577,-1.2576,-1.2575,0,-1.2987,-1.2932,-1.2963,-1.2911,-1.2898,-1.293,-1.2886,-1.2904,-1.2866,-1.2885,-1.2886,-1.2827,-1.2833,-1.2778,-1.2774,-1.2746,-1.2801,-1.2774,-1.281,-1.2803,-1.2862,-1.2858,-1.3059,-1.3082,-1.2874,-1.2876,-1.2878,0,-1.3082,-1.3108,-1.3059,-1.3062,-1.3045,-1.3052,-1.305,-1.2984,-1.2985,-1.2956,-1.2978,-1.2977,-1.2973,-1.2986,-1.2944,-1.2941,-1.2915,-1.2986,-1.2915,-1.2933,-1.292,-1.292,-1.2923,-1.3002,-1.3005,-1.3007,-1.3008,0,-1.3256,-1.3228,-1.3226,-1.3216,-1.3215,-1.3204,-1.3188,-1.3196,-1.3124,-1.3129,-1.3132,-1.313,-1.3124,-1.3125,-1.3113,-1.3093,-1.304,-1.303,-1.3043,-1.3065,-1.3085,-1.3077,-1.2853,-1.3027,-1.3025,-1.3024,-1.3023,-1.3022,-1.3392,-1.3413,-1.3381,-1.3382,-1.3363,-1.335,-1.3364,-1.3327,-1.3329,-1.3319,-1.3279,-1.3291,-1.3264,-1.3242,-1.3226,-1.3235,-1.3201,-1.322,-1.3225,-1.3231,-1.3243,-1.3081,-1.3233,-1.3232,-1.3231,-1.3231,-1.323,0,-1.3565,-1.354,-1.3542,-1.3522,-1.3523,-1.347,-1.3449,-1.3455,-1.3465,-1.3443,-1.3441,-1.3446,-1.3446,-1.3404,-1.3399,-1.3415,-1.339,-1.3416,-1.3416,-1.3412,-1.3273,-1.3263,-1.3436,-1.3436,-1.3436,-1.3436,-1.3436,-1.3436,-1.3656,-1.3687,-1.3655,-1.3677,-1.3651,-1.3661,-1.3655,-1.3643,-1.3625,-1.3634,-1.3633,-1.3604,-1.3575,-1.3567,-1.3566,-1.3553,-1.3556,-1.3591,-1.3571,-1.3442,-1.3422,-1.3403,-1.3394,-1.3591,-1.3591,-1.371,-1.3711,-1.3712]}]]